Date String (YYYY-MM-DD hh:mm:ss) UTC,Instrument flags,Ambient pressure (hPa),Sample flow (lpm),Bypass flow (lpm),Sample temperature (°C),Ambient temperature (°C),ASC tube jacket temperature (°C),LED temperature (°C),Box temperature (°C),Sample RH (%),Span deviation,Mass concentration (μg/m³),Mass concentration (μg/m³),Mass concentration (μg/m³)
DateTimeUTC,F1_M11,P_M11,Q1_M11,Q2_M11,T1_M11,T2_M11,T3_M11,T4_M11,T5_M11,U1_M11,ZSPAN_M11,X2_M11,X0_M11,X1_M11
2022-06-21 04:00:00,,0828.0,5.00,0.00,29.6,27.4,00.0,38.3,31.3,05.5,0000.0,0002.86,0006.78,0001.47
2022-06-21 04:01:00,,0828.0,5.00,0.00,29.5,27.4,00.0,38.3,31.2,05.5,0000.0,0002.91,0006.79,0001.49
2022-06-21 04:02:00,,0828.0,4.99,0.00,29.5,27.5,00.0,38.3,31.2,05.5,0000.0,0002.95,0006.97,0001.51
2022-06-21 04:03:00,,0827.9,5.01,0.00,29.4,27.6,00.0,38.3,31.2,05.6,0000.0,0003.01,0007.28,0001.52
2022-06-21 04:04:00,,0828.0,5.01,0.00,29.4,27.7,00.0,38.3,31.2,05.6,0000.0,0003.01,0007.45,0001.51
2022-06-21 04:05:00,,0828.2,5.00,0.00,29.4,27.9,00.0,38.3,31.3,05.6,0000.0,0003.02,0007.44,0001.52
2022-06-21 04:06:00,,0828.3,5.00,0.00,29.5,28.0,00.0,38.3,31.3,05.6,0000.0,0003.02,0006.44,0001.52
2022-06-21 04:07:00,,0828.2,4.99,0.00,29.5,28.1,00.0,38.3,31.3,05.6,0000.0,0003.03,0006.16,0001.51
2022-06-21 04:08:00,,0828.2,5.00,0.00,29.5,28.2,00.0,38.3,31.4,05.5,0000.0,0003.01,0006.18,0001.50
2022-06-21 04:09:00,,0828.4,5.00,0.00,29.5,28.3,00.0,38.3,31.4,05.5,0000.0,0003.02,0007.08,0001.49
2022-06-21 04:10:00,,0828.3,5.00,0.00,29.5,28.4,00.0,38.3,31.4,05.4,0000.0,0003.09,0007.42,0001.48
2022-06-21 04:11:00,,0828.3,4.99,0.00,29.6,28.5,00.0,38.3,31.4,05.4,0000.0,0003.09,0007.60,0001.48
2022-06-21 04:12:00,,0828.2,5.00,0.00,29.6,28.6,00.0,38.3,31.5,05.4,0000.0,0003.08,0007.65,0001.47
2022-06-21 04:13:00,,0828.2,5.00,0.00,29.6,28.7,00.0,38.4,31.5,05.4,0000.0,0003.09,0008.09,0001.46
2022-06-21 04:14:00,,0828.2,4.99,0.00,29.6,28.7,00.0,38.4,31.6,05.3,0000.0,0003.06,0008.14,0001.45
2022-06-21 04:15:00,,0828.2,5.00,0.00,29.7,28.8,00.0,38.4,31.6,05.3,0000.0,0003.13,0008.17,0001.47
2022-06-21 04:16:00,,0828.3,5.00,0.00,29.7,28.8,00.0,38.4,31.6,05.3,0000.0,0003.14,0008.25,0001.46
2022-06-21 04:17:00,,0828.3,5.01,0.00,29.7,28.9,00.0,38.4,31.7,05.3,0000.0,0003.16,0008.82,0001.47
2022-06-21 04:18:00,,0828.3,5.00,0.00,29.7,28.6,00.0,38.4,31.6,05.3,0000.0,0003.16,0008.89,0001.48
2022-06-21 04:19:00,,0828.3,4.98,0.00,29.7,27.8,00.0,38.3,31.4,05.3,0000.0,0003.17,0008.93,0001.49
2022-06-21 04:20:00,,0828.3,5.01,0.00,29.6,27.5,00.0,38.3,31.3,05.4,0000.0,0003.17,0008.57,0001.49
2022-06-21 04:21:00,,0828.3,5.00,0.00,29.5,27.5,00.0,38.3,31.3,05.4,0000.0,0003.14,0008.34,0001.48
2022-06-21 04:22:00,,0828.4,5.00,0.00,29.5,27.5,00.0,38.3,31.3,05.5,0000.0,0003.14,0008.22,0001.47
2022-06-21 04:23:00,,0828.5,5.00,0.00,29.5,27.7,00.0,38.3,31.3,05.5,0000.0,0003.13,0008.30,0001.46
2022-06-21 04:24:00,,0828.5,5.00,0.00,29.5,27.8,00.0,38.3,31.3,05.5,0000.0,0003.07,0007.72,0001.45
2022-06-21 04:25:00,,0828.5,5.00,0.00,29.5,27.9,00.0,38.3,31.3,05.5,0000.0,0003.03,0007.53,0001.45
2022-06-21 04:26:00,,0828.5,5.00,0.00,29.5,28.1,00.0,38.3,31.3,05.5,0000.0,0002.98,0007.50,0001.43
2022-06-21 04:27:00,,0828.8,5.00,0.00,29.5,28.2,00.0,38.3,31.4,05.5,0000.0,0002.93,0007.52,0001.41
2022-06-21 04:28:00,,0829.1,5.01,0.00,29.5,28.3,00.0,38.3,31.4,05.5,0000.0,0002.87,0006.89,0001.40
2022-06-21 04:29:00,,0829.0,4.98,0.00,29.5,28.4,00.0,38.3,31.4,05.5,0000.0,0002.83,0006.77,0001.38
2022-06-21 04:30:00,,0828.7,5.01,0.00,29.6,28.5,00.0,38.3,31.5,05.5,0000.0,0002.74,0006.63,0001.36
2022-06-21 04:31:00,,0828.9,5.01,0.00,29.6,28.5,00.0,38.3,31.5,05.5,0000.0,0002.72,0006.52,0001.36
2022-06-21 04:32:00,,0829.1,4.99,0.00,29.6,28.6,00.0,38.4,31.5,05.5,0000.0,0002.76,0006.95,0001.37
2022-06-21 04:33:00,,0828.9,5.01,0.00,29.6,28.7,00.0,38.4,31.5,05.4,0000.0,0002.72,0007.10,0001.38
2022-06-21 04:34:00,,0828.8,5.01,0.00,29.7,28.7,00.0,38.4,31.6,05.4,0000.0,0002.72,0006.96,0001.38
2022-06-21 04:35:00,,0828.9,4.99,0.00,29.7,28.8,00.0,38.4,31.6,05.4,0000.0,0002.74,0007.73,0001.39
2022-06-21 04:36:00,,0828.8,5.01,0.00,29.7,28.8,00.0,38.4,31.7,05.4,0000.0,0002.80,0008.05,0001.41
2022-06-21 04:37:00,,0828.7,5.00,0.00,29.7,28.9,00.0,38.5,31.7,05.4,0000.0,0002.76,0008.13,0001.41
2022-06-21 04:38:00,,0829.2,5.00,0.00,29.8,28.9,00.0,38.5,31.7,05.4,0000.0,0002.74,0008.37,0001.39
2022-06-21 04:39:00,,0829.2,5.01,0.00,29.8,28.8,00.0,38.5,31.7,05.5,0000.0,0002.78,0008.35,0001.40
2022-06-21 04:40:00,,0829.0,5.01,0.00,29.7,27.9,00.0,38.4,31.5,05.5,0000.0,0002.77,0008.37,0001.41
2022-06-21 04:41:00,,0828.8,4.99,0.00,29.7,27.5,00.0,38.4,31.3,05.5,0000.0,0002.78,0008.62,0001.41
2022-06-21 04:42:00,,0828.6,4.99,0.00,29.6,27.4,00.0,38.4,31.3,05.5,0000.0,0002.80,0008.62,0001.41
2022-06-21 04:43:00,,0828.9,5.00,0.00,29.6,27.5,00.0,38.4,31.2,05.6,0000.0,0002.74,0008.42,0001.40
2022-06-21 04:44:00,,0829.1,5.00,0.00,29.5,27.6,00.0,38.3,31.3,05.6,0000.0,0002.73,0008.33,0001.40
2022-06-21 04:45:00,,0829.1,5.01,0.00,29.5,27.7,00.0,38.3,31.3,05.6,0000.0,0002.73,0008.36,0001.40
2022-06-21 04:46:00,,0829.0,5.01,0.00,29.5,27.9,00.0,38.3,31.3,05.6,0000.0,0002.65,0007.72,0001.39
2022-06-21 04:47:00,,0829.1,5.00,0.00,29.5,28.0,00.0,38.3,31.3,05.5,0000.0,0002.70,0007.54,0001.38
2022-06-21 04:48:00,,0829.0,5.00,0.00,29.5,28.1,00.0,38.3,31.4,05.5,0000.0,0002.71,0007.39,0001.37
2022-06-21 04:49:00,,0829.0,5.01,0.00,29.5,28.3,00.0,38.3,31.4,05.5,0000.0,0002.77,0007.04,0001.38
2022-06-21 04:50:00,,0829.0,4.99,0.00,29.5,28.4,00.0,38.3,31.4,05.5,0000.0,0002.78,0006.87,0001.38
2022-06-21 04:51:00,,0829.0,5.00,0.00,29.6,28.4,00.0,38.4,31.5,05.4,0000.0,0002.78,0006.82,0001.39
2022-06-21 04:52:00,,0829.0,5.00,0.00,29.6,28.5,00.0,38.4,31.5,05.4,0000.0,0002.81,0006.95,0001.41
2022-06-21 04:53:00,,0829.2,5.01,0.00,29.6,28.6,00.0,38.4,31.5,05.4,0000.0,0002.85,0007.69,0001.43
2022-06-21 04:54:00,,0829.2,4.98,0.00,29.6,28.7,00.0,38.4,31.5,05.4,0000.0,0002.84,0007.73,0001.43
2022-06-21 04:55:00,,0829.1,5.00,0.00,29.7,28.7,00.0,38.4,31.6,05.4,0000.0,0002.88,0007.76,0001.43
2022-06-21 04:56:00,,0828.8,5.00,0.00,29.7,28.8,00.0,38.4,31.6,05.4,0000.0,0002.95,0007.92,0001.43
2022-06-21 04:57:00,,0829.3,5.01,0.00,29.7,28.8,00.0,38.4,31.7,05.4,0000.0,0003.04,0008.24,0001.43
2022-06-21 04:58:00,,0829.0,4.99,0.00,29.7,28.9,00.0,38.5,31.7,05.4,0000.0,0002.96,0008.17,0001.43
2022-06-21 04:59:00,,0828.9,5.00,0.00,29.8,28.9,00.0,38.5,31.7,05.4,0000.0,0002.99,0008.13,0001.45
